Weather History for Rolla, MO

Change the Weather History Date:

Saturday, January 5, 2013

  Actual Average Record
Temperature  
Mean Temperature 33 °F 31 °F  
Max Temperature 40 °F 40 °F 71 °F (1956)
Min Temperature 25 °F 22 °F -7 °F (1959)
Degree Days  
Heating Degree Days 32 34  
Month to date heating degree days 203 170  
Since 1 July heating degree days 1956 2087  
Cooling Degree Days 0 0  
Month to date cooling degree days 0 0  
Year to date cooling degree days 0 0  
Moisture  
Dew Point 26 °F    
Average Humidity 71    
Maximum Humidity 82    
Minimum Humidity 59    
Precipitation  
Precipitation 0.00 in 0.08 in 1.43 in (2005)
Month to date precipitation 0.00 0.39  
Year to date precipitation 0.00 0.39  
Sea Level Pressure  
Sea Level Pressure 30.22 in    
Wind  
Wind Speed 10 mph (SSW)    
Max Wind Speed 17 mph    
Max Gust Speed 22 mph    
Visibility 10 miles    
Events      
T = Trace of Precipitation, MM = Missing Value Source: NWS Daily Summary

Daily Weather History Graph

Daily Weather History Graph

Search for Another Location

Airport:

Trip Planner

Search our weather history database for the weather conditions in past years. The results will help you decide how hot, cold, wet, or windy it might be!

Date:

Astronomy

Jan. 05, 2013 Rise Set
Actual Time 7:23 AM CST 5:01 PM CST
Civil Twilight 6:54 AM CST 5:31 PM CST
Nautical Twilight 6:21 AM CST 6:03 PM CST
Astronomical Twilight 5:49 AM CST 6:35 PM CST
Moon 12:33 AM CST (1/5) 11:48 AM CST (1/5)
Length of Visible Light 10h 36m
Length of Day
9h 37m
Last Quarter, 44% of the Moon is Illuminated
Jan 5
Last Quarter
Jan 11
New
Jan 18
First Quarter
Jan 26
Full
Feb 3
Last Quarter

Hourly Weather History & Observations

Time (CST) Temp. Windchill Dew Point Humidity Pressure Visibility Wind Dir Wind Speed Gust Speed Precip Events Conditions
12:53 AM 27.0 °F 16.7 °F 18.0 °F 69% 30.32 in 10.0 mi SSW 11.5 mph - N/A   Clear
1:53 AM 28.0 °F 19.3 °F 19.0 °F 69% 30.30 in 10.0 mi SSW 9.2 mph - N/A   Clear
2:53 AM 26.1 °F 16.2 °F 19.0 °F 75% 30.29 in 10.0 mi SSW 10.4 mph - N/A   Partly Cloudy
3:53 AM 28.0 °F 18.1 °F 19.9 °F 72% 30.29 in 10.0 mi SSW 11.5 mph - N/A   Clear
4:53 AM 30.0 °F 21.1 °F 21.9 °F 72% 30.29 in 10.0 mi SSW 10.4 mph - N/A   Clear
5:53 AM 30.9 °F 22.2 °F 23.0 °F 72% 30.29 in 10.0 mi SSW 10.4 mph - N/A   Mostly Cloudy
6:53 AM 32.0 °F 24.8 °F 23.0 °F 69% 30.29 in 10.0 mi SSW 8.1 mph - N/A   Overcast
7:53 AM 32.0 °F 23.6 °F 24.1 °F 73% 30.30 in 10.0 mi SW 10.4 mph - N/A   Overcast
8:53 AM 33.1 °F 26.9 °F 23.0 °F 66% 30.30 in 10.0 mi SSW 6.9 mph - N/A   Overcast
9:53 AM 35.1 °F 27.4 °F 25.0 °F 67% 30.30 in 10.0 mi South 10.4 mph - N/A   Overcast
10:53 AM 37.0 °F 30.4 °F 26.1 °F 65% 30.27 in 10.0 mi SSW 9.2 mph - N/A   Overcast
11:53 AM 37.9 °F 31.5 °F 26.1 °F 62% 30.22 in 10.0 mi SSW 9.2 mph - N/A   Overcast
12:53 PM 39.0 °F 31.0 °F 27.0 °F 62% 30.18 in 10.0 mi SW 13.8 mph - N/A   Overcast
1:53 PM 39.0 °F 31.8 °F 28.0 °F 65% 30.16 in 10.0 mi SW 11.5 mph - N/A   Overcast
2:53 PM 37.9 °F 32.1 °F 28.0 °F 68% 30.16 in 10.0 mi SW 8.1 mph - N/A   Overcast
3:53 PM 37.9 °F 32.7 °F 28.9 °F 70% 30.15 in 10.0 mi South 6.9 mph - N/A   Overcast
4:53 PM 37.9 °F 30.9 °F 28.0 °F 68% 30.14 in 10.0 mi SSW 10.4 mph - N/A   Overcast
5:53 PM 37.9 °F 32.1 °F 28.0 °F 68% 30.16 in 10.0 mi SSW 8.1 mph - N/A   Overcast
6:53 PM 37.9 °F 32.1 °F 28.9 °F 70% 30.17 in 10.0 mi SSW 8.1 mph - N/A   Overcast
7:53 PM 37.9 °F 30.9 °F 30.0 °F 73% 30.15 in 10.0 mi SW 10.4 mph - N/A   Overcast
8:53 PM 37.0 °F 29.8 °F 30.0 °F 76% 30.16 in 10.0 mi SW 10.4 mph - N/A   Mostly Cloudy
9:53 PM 36.0 °F 29.0 °F 30.0 °F 79% 30.15 in 10.0 mi SSW 9.2 mph - N/A   Partly Cloudy
10:53 PM 37.0 °F 29.8 °F 30.0 °F 76% 30.14 in 10.0 mi SSW 10.4 mph - N/A   Overcast
11:53 PM 36.0 °F 27.1 °F 30.0 °F 79% 30.13 in 10.0 mi SW 13.8 mph - N/A   Clear